Change the Weather History Date:

Tuesday, December 25, 2012

  Actual Average Record
Temperature  
Mean Temperature 26 °F 24 °F  
Max Temperature 29 °F 31 °F 60 °F (1964)
Min Temperature 22 °F 16 °F -15 °F (1969)
Degree Days  
Heating Degree Days 39 41  
Month to date heating degree days 781 932  
Since 1 July heating degree days 2288 2583  
Cooling Degree Days 0 0  
Month to date cooling degree days 0 0  
Year to date cooling degree days 465 290  
Moisture  
Dew Point 23 °F    
Average Humidity 81    
Maximum Humidity 92    
Minimum Humidity 69    
Precipitation  
Precipitation 0.04 in 0.10 in 1.27 in (1965)
Month to date precipitation 3.12 2.44  
Year to date precipitation 35.63 44.82  
Sea Level Pressure  
Sea Level Pressure 30.03 in    
Wind  
Wind Speed 6 mph (North)    
Max Wind Speed 14 mph    
Max Gust Speed 20 mph    
Visibility 7 miles    
Events Snow    
T = Trace of Precipitation, MM = Missing Value Source: NWS Daily Summary

Daily Weather History Graph

Daily Weather History Graph

Search for Another Location

Airport or City:

Trip Planner

Search our weather history database for the weather conditions in past years. The results will help you decide how hot, cold, wet, or windy it might be!

Date:

Astronomy

Dec. 25, 2012 Rise Set
Actual Time 7:21 AM EST 4:25 PM EST
Civil Twilight 6:49 AM EST 4:57 PM EST
Nautical Twilight 6:13 AM EST 5:33 PM EST
Astronomical Twilight 5:39 AM EST 6:07 PM EST
Moon 2:33 PM EST (12/25) 4:50 AM EST (12/25)
Length of Visible Light 10h 08m
Length of Day
9h 04m
Waxing Gibbous, 93% of the Moon is Illuminated
Dec 25
Waxing Gibbous
Dec 28
Full
Jan 4
Last Quarter
Jan 11
New
Jan 18
First Quarter

Hourly Weather History & Observations

Time (EST) Temp. Windchill Dew Point Humidity Pressure Visibility Wind Dir Wind Speed Gust Speed Precip Events Conditions
12:24 AM 26.6 °F - 19.4 °F 74% 29.91 in 10.0 mi Calm Calm - N/A   Overcast
12:54 AM 28.0 °F 21.7 °F 19.0 °F 69% 29.94 in 10.0 mi NE 5.8 mph - N/A   Overcast
1:54 AM 28.0 °F 22.8 °F 21.9 °F 78% 29.94 in 10.0 mi ENE 4.6 mph - 0.00 in   Overcast
2:54 AM 28.0 °F 21.7 °F 23.0 °F 81% 29.94 in 4.0 mi ENE 5.8 mph - 0.00 in Snow Light Snow
3:07 AM 26.6 °F 22.6 °F 23.0 °F 86% 29.90 in 2.5 mi ENE 3.5 mph - 0.00 in Snow Light Snow
3:41 AM 26.6 °F 22.6 °F 24.8 °F 93% 29.91 in 1.8 mi NNE 3.5 mph - 0.00 in Snow Light Snow
3:51 AM 26.6 °F 21.2 °F 24.8 °F 93% 29.91 in 1.5 mi NNE 4.6 mph - 0.00 in Snow Light Snow
3:54 AM 27.0 °F 21.6 °F 24.1 °F 89% 29.95 in 1.8 mi NNE 4.6 mph - 0.00 in Snow Light Snow
4:01 AM 26.6 °F 22.6 °F 24.8 °F 93% 29.91 in 2.5 mi NE 3.5 mph - 0.00 in Snow Light Snow
4:09 AM 26.6 °F 22.6 °F 24.8 °F 93% 29.91 in 3.0 mi NE 3.5 mph - 0.01 in   Overcast
4:18 AM 26.6 °F 21.2 °F 24.8 °F 93% 29.91 in 2.0 mi NE 4.6 mph - 0.01 in Snow Light Snow
4:33 AM 26.6 °F 22.6 °F 24.8 °F 93% 29.91 in 1.8 mi NE 3.5 mph - 0.01 in Snow Light Snow
4:54 AM 26.1 °F 21.9 °F 25.0 °F 96% 29.96 in 1.2 mi NNE 3.5 mph - 0.02 in Snow Light Snow
5:36 AM 26.6 °F 22.6 °F 24.8 °F 93% 29.92 in 2.5 mi NE 3.5 mph - 0.02 in Snow Light Snow
5:44 AM 26.6 °F 22.6 °F 24.8 °F 93% 29.92 in 3.0 mi NNE 3.5 mph - 0.02 in Snow Light Snow
5:54 AM 26.1 °F 21.9 °F 25.0 °F 96% 29.97 in 3.0 mi NNE 3.5 mph - 0.02 in Snow Light Snow
6:54 AM 27.0 °F 23.0 °F 25.0 °F 92% 29.99 in 2.5 mi NNE 3.5 mph - 0.00 in Snow Light Snow
7:01 AM 26.6 °F 22.6 °F 24.8 °F 93% 29.94 in 3.0 mi NNE 3.5 mph - 0.00 in Snow Light Snow
7:54 AM 27.0 °F - 25.0 °F 92% 30.01 in 4.0 mi Calm Calm - 0.00 in   Overcast
8:54 AM 27.0 °F - 25.0 °F 92% 30.03 in 4.0 mi Calm Calm - N/A   Overcast
9:25 AM 28.4 °F - 24.8 °F 86% 30.00 in 8.0 mi Calm Calm - N/A   Overcast
9:54 AM 28.0 °F - 25.0 °F 88% 30.06 in 10.0 mi Calm Calm - N/A   Overcast
10:30 AM 28.4 °F - 24.8 °F 86% 30.02 in 10.0 mi Calm Calm - N/A   Overcast
10:39 AM 28.4 °F 24.6 °F 24.8 °F 86% 30.02 in 10.0 mi West 3.5 mph - N/A   Overcast
10:54 AM 28.9 °F 22.8 °F 26.1 °F 89% 30.06 in 10.0 mi WNW 5.8 mph - N/A   Overcast
11:11 AM 28.4 °F 22.2 °F 26.6 °F 93% 30.01 in 10.0 mi WNW 5.8 mph - N/A   Overcast
11:42 AM 28.4 °F 20.4 °F 24.8 °F 86% 30.01 in 10.0 mi NW 8.1 mph - N/A   Overcast
11:54 AM 28.9 °F 21.1 °F 25.0 °F 85% 30.05 in 10.0 mi NW 8.1 mph - N/A   Overcast
12:05 PM 28.4 °F 19.7 °F 24.8 °F 86% 30.00 in 10.0 mi WNW 9.2 mph - N/A   Overcast
12:54 PM 28.9 °F 19.2 °F 24.1 °F 82% 30.04 in 10.0 mi WNW 11.5 mph - N/A   Overcast
1:07 PM 28.4 °F 18.5 °F 24.8 °F 86% 29.99 in 10.0 mi WNW 11.5 mph - N/A   Overcast
1:28 PM 28.4 °F 20.4 °F 23.0 °F 80% 30.00 in 10.0 mi NW 8.1 mph 18.4 mph N/A   Overcast
1:54 PM 28.9 °F 19.8 °F 23.0 °F 78% 30.06 in 10.0 mi WNW 10.4 mph - N/A   Overcast
2:54 PM 28.0 °F 18.1 °F 21.9 °F 78% 30.11 in 10.0 mi West 11.5 mph - N/A   Overcast
3:54 PM 27.0 °F 20.5 °F 19.9 °F 75% 30.14 in 10.0 mi NNW 5.8 mph - N/A   Mostly Cloudy
4:11 PM 26.6 °F 19.1 °F 19.4 °F 74% 30.10 in 10.0 mi NNW 6.9 mph - N/A   Scattered Clouds
4:43 PM 24.8 °F 19.1 °F 19.4 °F 80% 30.09 in 10.0 mi NNW 4.6 mph - N/A   Mostly Cloudy
4:54 PM 25.0 °F 18.1 °F 19.0 °F 78% 30.15 in 10.0 mi NW 5.8 mph - N/A   Mostly Cloudy
5:11 PM 24.8 °F 16.9 °F 19.4 °F 80% 30.10 in 10.0 mi NW 6.9 mph - N/A   Scattered Clouds
5:38 PM 24.8 °F 17.9 °F 19.4 °F 80% 30.11 in 10.0 mi Variable 5.8 mph - N/A   Mostly Cloudy
5:54 PM 25.0 °F 14.2 °F 19.9 °F 81% 30.17 in 10.0 mi North 11.5 mph - N/A   Overcast
6:02 PM 24.8 °F 14.0 °F 19.4 °F 80% 30.12 in 10.0 mi North 11.5 mph 18.4 mph N/A   Overcast
6:33 PM 24.8 °F 20.5 °F 19.4 °F 80% 30.14 in 10.0 mi NE 3.5 mph - N/A   Overcast
6:54 PM 26.1 °F 20.5 °F 19.9 °F 78% 30.20 in 10.0 mi Variable 4.6 mph - N/A   Overcast
7:54 PM 25.0 °F 17.1 °F 19.9 °F 81% 30.21 in 10.0 mi NW 6.9 mph - N/A   Overcast
8:54 PM 25.0 °F 18.1 °F 19.0 °F 78% 30.23 in 10.0 mi NW 5.8 mph - N/A   Overcast
9:54 PM 25.0 °F 19.3 °F 19.0 °F 78% 30.24 in 10.0 mi NW 4.6 mph - N/A   Overcast
10:54 PM 23.0 °F 13.1 °F 19.0 °F 85% 30.25 in 10.0 mi NW 9.2 mph - N/A   Mostly Cloudy
11:54 PM 21.9 °F 12.5 °F 18.0 °F 85% 30.25 in 10.0 mi WNW 8.1 mph - N/A   Scattered Clouds